This is the latest recevied weather packets stored in our database for station/object EA1HTW-1. If no packets are shown the sender has not sent any weather packets the latest 10 day(s).
| Time | Temp. | Humidity | Pressure | Rain* | Wind** | Luminosity | Snow |
|---|---|---|---|---|---|---|---|
| 1777798162 | 12.22° C | 96% | 985.3 hPa | 1.27 mm | - | - | - |
| 1777796963 | 12.22° C | 96% | 985.2 hPa | 2.29 mm | - | - | - |
| 1777796360 | 12.22° C | 96% | 985.3 hPa | 2.03 mm | - | - | - |
| 1777795162 | 12.22° C | 97% | 985.2 hPa | 1.52 mm | - | - | - |
| 1777794562 | 11.67° C | 97% | 985.1 hPa | 1.27 mm | - | - | - |
| 1777793361 | 11.67° C | 96% | 984.9 hPa | 0 mm | - | - | - |
| 1777792761 | 11.67° C | 96% | 985 hPa | 0 mm | - | - | - |
| 1777791559 | 12.22° C | 96% | 984.9 hPa | 0 mm | - | - | - |
| 1777790962 | 11.67° C | 96% | 984.7 hPa | 0 mm | - | - | - |
| 1777789761 | 11.67° C | 96% | 984.9 hPa | 0 mm | - | - | - |
| 1777789162 | 11.67° C | 96% | 984.6 hPa | 0 mm | - | - | - |
| 1777787959 | 11.67° C | 96% | 984.6 hPa | 0.51 mm | - | - | - |
| 1777787363 | 11.67° C | 96% | 984.6 hPa | 0.51 mm | - | - | - |
| 1777786763 | 11.11° C | 96% | 984.6 hPa | 0.51 mm | - | - | - |
| 1777786159 | 11.11° C | 96% | 984.5 hPa | 0.51 mm | - | - | - |
| 1777785562 | 11.11° C | 96% | 984.5 hPa | 0.51 mm | - | - | - |
| 1777784963 | 11.11° C | 96% | 984.5 hPa | 0 mm | - | - | - |
| 1777784361 | 11.11° C | 96% | 984.5 hPa | 0 mm | - | - | - |
| 1777783762 | 11.11° C | 96% | 984.5 hPa | 0 mm | - | - | - |
| 1777782785 | 11.11° C | 96% | 984.5 hPa | 0 mm | - | - | - |
| 1777782562 | 11.11° C | 96% | 984.5 hPa | 0 mm | - | - | - |
| 1777781962 | 11.11° C | 96% | 984.6 hPa | 0 mm | - | - | - |
| 1777780761 | 11.11° C | 96% | 984.7 hPa | 0 mm | - | - | - |
| 1777780163 | 11.11° C | 96% | 984.8 hPa | 0 mm | - | - | - |
| 1777778362 | 11.67° C | 96% | 984.9 hPa | 0 mm | - | - | - |
* Rain latest hour (hover to see other rain measurements)
** Current wind speed in m/s (hover to see current wind gust speed)